Weather History for KF05 - May, 2013

Change the Weather History Date:

Monday, May 27, 2013

  Actual Average (KLTS) Record (KLTS)
Temperature  
Mean Temperature 86 °F -  
Max Temperature 98 °F 86 °F 104 °F (2011)
Min Temperature 73 °F 63 °F 60 °F (1999)
Cooling Degree Days 20    
Growing Degree Days 36 (Base 50)    
Moisture  
Dew Point 63 °F    
Average Humidity 49    
Maximum Humidity 74    
Minimum Humidity 27    
Precipitation  
Precipitation 0.00 in - - ()
Sea Level Pressure  
Sea Level Pressure 29.80 in    
Wind  
Wind Speed 18 mph (South)    
Max Wind Speed 30 mph    
Max Gust Speed 37 mph    
Visibility 10 miles    
Events Thunderstorm    
Averages and records for this station are not official NWS values.
T = Trace of Precipitation, MM = Missing Value Source: NWS Daily Summary

Daily Weather History Graph

Daily Weather History Graph

Search for Another Location

Airport or City:

Trip Planner

Search our weather history database for the weather conditions in past years. The results will help you decide how hot, cold, wet, or windy it might be!

Date:

Astronomy

May. 27, 2013 Rise Set
Actual Time 6:28 AM CDT 8:40 PM CDT
Civil Twilight 5:59 AM CDT 9:09 PM CDT
Nautical Twilight 5:24 AM CDT 9:44 PM CDT
Astronomical Twilight 4:46 AM CDT 10:22 PM CDT
Moon 11:24 PM CDT (5/27) 9:05 AM CDT (5/27)
Length of Visible Light 15h 09m
Length of Day
14h 12m
Waning Gibbous, 91% of the Moon is Illuminated
May 27
Waning Gibbous
May 31
Last Quarter
Jun 8
New
Jun 16
First Quarter
Jun 23
Full

Hourly Weather History & Observations

Time (CDT) Temp. Heat Index Dew Point Humidity Pressure Visibility Wind Dir Wind Speed Gust Speed Precip Events Conditions
12:15 AM 82.6 °F 83.2 °F 61.5 °F 49% 29.90 in 10.0 mi South 16.1 mph 23.0 mph N/A   Clear
12:35 AM 82.2 °F 83.0 °F 61.9 °F 50% 29.90 in 10.0 mi SSE 16.1 mph 21.9 mph N/A   Clear
12:55 AM 81.9 °F 82.8 °F 61.9 °F 51% 29.89 in 10.0 mi South 17.3 mph - N/A   Clear
1:15 AM 81.5 °F 82.5 °F 62.2 °F 52% 29.88 in 10.0 mi South 16.1 mph 21.9 mph N/A   Clear
1:35 AM 81.1 °F 82.1 °F 62.2 °F 52% 29.88 in 10.0 mi South 13.8 mph 20.7 mph N/A   Clear
1:55 AM 80.6 °F 81.8 °F 62.6 °F 54% 29.88 in 10.0 mi South 17.3 mph 23.0 mph N/A   Clear
2:15 AM 79.7 °F - 63.3 °F 57% 29.88 in 10.0 mi South 16.1 mph - N/A   Clear
2:35 AM 79.2 °F - 64.0 °F 60% 29.88 in 10.0 mi South 18.4 mph 23.0 mph N/A   Clear
2:55 AM 78.6 °F - 64.6 °F 62% 29.87 in 10.0 mi South 17.3 mph 23.0 mph N/A   Clear
3:15 AM 77.9 °F - 64.9 °F 64% 29.87 in 10.0 mi South 18.4 mph 24.2 mph N/A   Clear
3:35 AM 77.5 °F - 64.9 °F 65% 29.86 in 10.0 mi South 19.6 mph 25.3 mph N/A   Clear
3:55 AM 77.2 °F - 64.6 °F 65% 29.85 in 10.0 mi South 18.4 mph 24.2 mph N/A   Clear
4:15 AM 76.8 °F - 64.0 °F 65% 29.85 in 10.0 mi South 15.0 mph 23.0 mph N/A   Clear
4:35 AM 76.1 °F - 63.7 °F 65% 29.85 in 10.0 mi South 16.1 mph 21.9 mph N/A   Clear
4:55 AM 75.6 °F - 63.7 °F 66% 29.86 in 10.0 mi South 13.8 mph 20.7 mph N/A   Clear
5:15 AM 75.2 °F - 63.7 °F 67% 29.86 in 10.0 mi South 15.0 mph 21.9 mph N/A   Clear
5:35 AM 75.0 °F - 63.9 °F 68% 29.86 in 10.0 mi South 15.0 mph 20.7 mph N/A   Clear
5:55 AM 74.5 °F - 64.2 °F 70% 29.86 in 10.0 mi South 16.1 mph 20.7 mph N/A   Clear
6:15 AM 74.1 °F - 64.4 °F 72% 29.85 in 10.0 mi South 13.8 mph - N/A   Clear
6:35 AM 73.8 °F - 64.4 °F 72% 29.85 in 10.0 mi South 16.1 mph - N/A   Clear
6:55 AM 73.6 °F - 64.8 °F 74% 29.86 in 10.0 mi South 11.5 mph - N/A   Clear
7:15 AM 73.6 °F - 64.8 °F 74% 29.86 in 10.0 mi South 15.0 mph - N/A   Scattered Clouds
7:35 AM 74.5 °F - 64.8 °F 72% 29.87 in 10.0 mi South 15.0 mph 19.6 mph N/A   Scattered Clouds
7:55 AM 75.9 °F - 65.1 °F 69% 29.87 in 10.0 mi South 12.7 mph - N/A   Mostly Cloudy
8:15 AM 76.6 °F - 65.1 °F 67% 29.88 in 10.0 mi South 16.1 mph 21.9 mph N/A   Overcast
8:35 AM 77.4 °F - 64.9 °F 65% 29.88 in 10.0 mi South 16.1 mph - N/A   Overcast
8:55 AM 78.4 °F - 65.1 °F 63% 29.88 in 10.0 mi South 13.8 mph 18.4 mph N/A   Overcast
9:15 AM 79.3 °F - 65.1 °F 62% 29.87 in 10.0 mi South 13.8 mph 24.2 mph N/A   Overcast
9:35 AM 80.6 °F 82.4 °F 65.1 °F 59% 29.87 in 10.0 mi South 15.0 mph 21.9 mph N/A   Mostly Cloudy
9:55 AM 82.4 °F 84.1 °F 64.6 °F 55% 29.86 in 10.0 mi South 21.9 mph 25.3 mph N/A   Mostly Cloudy
10:15 AM 83.8 °F 85.1 °F 64.2 °F 51% 29.86 in 10.0 mi South 23.0 mph 26.5 mph N/A   Scattered Clouds
10:35 AM 85.1 °F 86.4 °F 63.9 °F 49% 29.85 in 10.0 mi SSW 21.9 mph 27.6 mph N/A   Clear
10:55 AM 86.5 °F 87.6 °F 63.7 °F 46% 29.84 in 10.0 mi South 18.4 mph 29.9 mph N/A   Clear
11:15 AM 87.4 °F 88.2 °F 63.3 °F 44% 29.84 in 10.0 mi SSW 20.7 mph 26.5 mph N/A   Clear
11:35 AM 88.5 °F 89.2 °F 62.8 °F 42% 29.84 in 10.0 mi South 21.9 mph - N/A   Clear
11:55 AM 90.0 °F 90.6 °F 62.6 °F 40% 29.83 in 10.0 mi South 20.7 mph 26.5 mph N/A   Clear
12:15 PM 90.9 °F 91.3 °F 62.1 °F 38% 29.82 in 10.0 mi South 23.0 mph 28.8 mph N/A   Clear
12:35 PM 91.0 °F 91.2 °F 61.5 °F 37% 29.82 in 10.0 mi South 24.2 mph 28.8 mph N/A   Clear
12:55 PM 92.3 °F 92.3 °F 60.8 °F 35% 29.81 in 10.0 mi South 18.4 mph 26.5 mph N/A   Clear
1:15 PM 93.6 °F 93.4 °F 60.6 °F 33% 29.80 in 10.0 mi South 21.9 mph 28.8 mph N/A   Clear
1:35 PM 94.8 °F 94.5 °F 60.1 °F 31% 29.78 in 10.0 mi SSW 23.0 mph 33.4 mph N/A   Clear
1:55 PM 95.7 °F 95.5 °F 59.9 °F 30% 29.78 in 10.0 mi SSW 24.2 mph 32.2 mph N/A   Clear
2:15 PM 96.6 °F 96.4 °F 59.9 °F 29% 29.77 in 10.0 mi South 25.3 mph 32.2 mph N/A   Clear
2:35 PM 97.3 °F 97.5 °F 59.7 °F 29% 29.76 in 10.0 mi South 21.9 mph 32.2 mph N/A   Clear
2:55 PM 97.7 °F 97.6 °F 59.2 °F 28% 29.75 in 10.0 mi South 21.9 mph 33.4 mph N/A   Clear
3:15 PM 97.5 °F 97.3 °F 59.4 °F 28% 29.74 in 10.0 mi South 21.9 mph 35.7 mph N/A   Clear
3:35 PM 98.1 °F 97.7 °F 59.2 °F 27% 29.73 in 10.0 mi South 24.2 mph 32.2 mph N/A   Clear
3:55 PM 98.2 °F 97.9 °F 59.2 °F 27% 29.73 in 10.0 mi South 26.5 mph 32.2 mph N/A   Clear
4:15 PM 97.9 °F 97.8 °F 59.2 °F 28% 29.72 in 10.0 mi South 23.0 mph 33.4 mph N/A   Clear
4:35 PM 97.5 °F 97.3 °F 59.2 °F 28% 29.71 in 10.0 mi South 23.0 mph 31.1 mph N/A   Clear
4:55 PM 98.2 °F 98.4 °F 59.5 °F 28% 29.70 in 10.0 mi South 26.5 mph 34.5 mph N/A   Clear
5:15 PM 97.7 °F 97.6 °F 59.5 °F 28% 29.69 in 10.0 mi South 20.7 mph 28.8 mph N/A   Clear
5:35 PM 96.6 °F 96.8 °F 60.3 °F 30% 29.69 in 10.0 mi SSE 23.0 mph 32.2 mph N/A   Clear
5:55 PM 93.7 °F 93.3 °F 60.1 °F 32% 29.67 in 10.0 mi South 25.3 mph 32.2 mph N/A   Clear
6:15 PM 92.1 °F 91.7 °F 59.9 °F 34% 29.68 in 10.0 mi South 25.3 mph 34.5 mph N/A   Clear
6:35 PM 91.0 °F 90.5 °F 60.1 °F 35% 29.70 in 10.0 mi South 24.2 mph 31.1 mph N/A   Clear
6:55 PM 90.1 °F 89.6 °F 60.1 °F 36% 29.72 in 10.0 mi South 19.6 mph 26.5 mph N/A   Clear
7:15 PM 89.8 °F 89.4 °F 60.3 °F 37% 29.73 in 10.0 mi South 15.0 mph 20.7 mph N/A Thunderstorm Scattered Clouds
7:35 PM 89.2 °F 89.0 °F 60.6 °F 38% 29.74 in 10.0 mi South 15.0 mph 20.7 mph N/A   Clear
7:55 PM 89.4 °F 89.2 °F 60.8 °F 38% 29.71 in 10.0 mi South 20.7 mph 28.8 mph N/A   Scattered Clouds
8:15 PM 88.3 °F 89.2 °F 63.3 °F 43% 29.69 in 10.0 mi SSE 23.0 mph 28.8 mph N/A   Clear
8:35 PM 86.4 °F 88.1 °F 64.9 °F 49% 29.72 in 10.0 mi South 24.2 mph 32.2 mph N/A   Clear
8:55 PM 85.3 °F 86.8 °F 64.9 °F 50% 29.70 in 10.0 mi SE 23.0 mph 31.1 mph N/A   Unknown
9:15 PM 84.9 °F 86.6 °F 64.8 °F 51% 29.72 in 10.0 mi SE 8.1 mph 24.2 mph N/A Thunderstorm Clear
9:35 PM 84.4 °F 85.9 °F 64.6 °F 51% 29.71 in 10.0 mi South 17.3 mph 32.2 mph N/A   Clear
9:55 PM 83.5 °F 85.1 °F 64.9 °F 53% 29.69 in 10.0 mi South 24.2 mph 34.5 mph N/A   Clear
10:15 PM 83.1 °F 84.8 °F 64.9 °F 54% 29.71 in 10.0 mi South 26.5 mph 33.4 mph N/A   Clear
10:35 PM 82.8 °F 84.5 °F 64.9 °F 55% 29.71 in 10.0 mi South 28.8 mph 34.5 mph N/A   Clear
10:55 PM 83.1 °F 84.6 °F 64.6 °F 53% 29.72 in 10.0 mi South 29.9 mph 36.8 mph N/A   Clear
11:15 PM 83.1 °F 84.6 °F 64.4 °F 53% 29.72 in 10.0 mi South 23.0 mph 35.7 mph N/A   Clear
11:35 PM 82.4 °F 83.9 °F 64.4 °F 54% 29.73 in 10.0 mi South 23.0 mph 28.8 mph N/A   Clear
11:55 PM 82.4 °F 83.7 °F 63.9 °F 53% 29.74 in 10.0 mi South 23.0 mph 29.9 mph N/A   Clear